Eagle River, WI

7:15 PM CDT on September 20, 2017 (GMT -0500)
Eagle River Union

Weather History for KEGV - September, 2011

Change the Weather History Date:

Friday, September 23, 2011

  Actual Average Record
Temperature  
Mean Temperature 49 °F -  
Max Temperature 55 °F 56 °F 78 °F (2007)
Min Temperature 43 °F 36 °F 28 °F (1998)
Degree Days  
Heating Degree Days 16    
Moisture  
Dew Point 47 °F    
Average Humidity 92    
Maximum Humidity 100    
Minimum Humidity 68    
Precipitation  
Precipitation 0.06 in - - ()
Sea Level Pressure  
Sea Level Pressure 30.10 in    
Wind  
Wind Speed 4 mph (North)    
Max Wind Speed 13 mph    
Max Gust Speed 17 mph    
Visibility 8 miles    
Events Rain    
Averages and records for this station are not official NWS values.
T = Trace of Precipitation, MM = Missing Value Source: NWS Daily Summary

Daily Weather History Graph

Daily Weather History Graph

Search for Another Location

Airport or City:

Trip Planner

Search our weather history database for the weather conditions in past years. The results will help you decide how hot, cold, wet, or windy it might be!

Date:

Astronomy

Sep. 23, 2011 Rise Set
Actual Time 6:44 AM CDT 6:53 PM CDT
Civil Twilight 6:15 AM CDT 7:22 PM CDT
Nautical Twilight 5:40 AM CDT 7:57 PM CDT
Astronomical Twilight 5:04 AM CDT 8:33 PM CDT
Moon 1:58 AM CDT (9/23) 4:34 PM CDT (9/23)
Length of Visible Light 13h 07m
Length of Day
12h 08m
Waning Crescent, 19% of the Moon is Illuminated
Sep 23
Waning Crescent
Sep 27
New
Oct 3
First Quarter
Oct 11
Full
Oct 19
Last Quarter

Hourly Weather History & Observations

Time (CDT) Temp. Windchill Dew Point Humidity Pressure Visibility Wind Dir Wind Speed Gust Speed Precip Events Conditions
12:15 AM 43.0 °F - 43.2 °F 100% 30.13 in 10.0 mi Calm Calm - N/A   Overcast
12:35 AM 43.2 °F - 43.3 °F 100% 30.12 in 10.0 mi Calm Calm - N/A   Overcast
12:55 AM - - - N/A% 30.12 in 10.0 mi NNW 3.5 mph - N/A   Drizzle
1:15 AM - - - N/A% 30.12 in 10.0 mi NNW 4.6 mph - N/A Rain Light Rain
1:35 AM 43.3 °F - 43.5 °F 100% 30.12 in 10.0 mi Calm Calm - N/A Rain Light Rain
1:55 AM 43.3 °F 40.7 °F 43.5 °F 100% 30.12 in 10.0 mi North 4.6 mph - N/A Rain Light Rain
2:15 AM - - - N/A% 30.12 in 10.0 mi NNW 3.5 mph - N/A   Overcast
2:35 AM - - - N/A% 30.12 in 10.0 mi NW 3.5 mph - N/A   Overcast
2:55 AM - - - N/A% 30.11 in 10.0 mi NW 3.5 mph - N/A   Overcast
3:15 AM - - - N/A% 30.12 in 10.0 mi NW 3.5 mph - N/A   Overcast
3:35 AM 43.7 °F 42.1 °F 43.7 °F 100% 30.11 in 7.0 mi NW 3.5 mph - N/A   Overcast
3:55 AM 43.7 °F - 43.7 °F 100% 30.11 in 5.0 mi Calm Calm - N/A   Overcast
4:15 AM - - - N/A% 30.11 in 4.0 mi Calm Calm - N/A   Overcast
4:35 AM - - - N/A% 30.11 in 4.0 mi Calm Calm - N/A   Overcast
4:55 AM - - - N/A% 30.11 in 3.0 mi NW 3.5 mph - N/A   Overcast
5:15 AM 43.2 °F 41.5 °F 43.3 °F 100% 30.11 in 2.0 mi WNW 3.5 mph - N/A   Overcast
5:35 AM 43.2 °F 41.5 °F 43.3 °F 100% 30.11 in 2.0 mi NW 3.5 mph - N/A   Overcast
5:55 AM - - - N/A% 30.11 in 1.2 mi Calm Calm - N/A   Overcast
6:15 AM 43.7 °F 42.1 °F 43.7 °F 100% 30.11 in 1.2 mi NW 3.5 mph - N/A   Overcast
6:35 AM 43.7 °F 42.1 °F 43.7 °F 100% 30.12 in 2.0 mi NW 3.5 mph - N/A   Overcast
6:55 AM 43.7 °F 41.1 °F 43.7 °F 100% 30.12 in 5.0 mi NW 4.6 mph - N/A Rain Light Rain
7:15 AM 43.7 °F 42.1 °F 43.9 °F 100% 30.13 in 3.0 mi NW 3.5 mph - N/A   Drizzle
7:35 AM 43.9 °F 41.3 °F 44.1 °F 100% 30.13 in 1.5 mi NW 4.6 mph - N/A   Overcast
8:15 AM 44.6 °F 42.2 °F 44.8 °F 100% 30.13 in 5.0 mi NW 4.6 mph - 0.01 in   Drizzle
8:35 AM 45.3 °F 42.3 °F 45.3 °F 100% 30.13 in 10.0 mi NW 5.8 mph - 0.01 in   Overcast
8:55 AM 45.7 °F 42.0 °F 45.7 °F 100% 30.13 in 4.0 mi NNW 6.9 mph - 0.01 in Rain Light Rain
9:35 AM 46.6 °F - 46.8 °F 100% 30.13 in 1.8 mi NNW 5.8 mph - N/A   Drizzle
9:55 AM - - - N/A% 30.13 in 2.5 mi North 4.6 mph - N/A   Light Drizzle
10:15 AM 48.2 °F - 48.4 °F 100% 30.13 in 10.0 mi NNW 9.2 mph - N/A   Overcast
10:35 AM - - - N/A% 30.13 in 10.0 mi North 6.9 mph - N/A   Overcast
10:55 AM 50.2 °F - 49.3 °F 97% 30.12 in 10.0 mi North 8.1 mph - N/A   Overcast
11:15 AM 50.0 °F - 49.3 °F 97% 30.12 in 10.0 mi North 6.9 mph - N/A   Light Drizzle
11:35 AM 49.8 °F - 49.3 °F 98% 30.11 in 10.0 mi NNE 4.6 mph - N/A   Overcast
12:15 PM 52.9 °F - 48.7 °F 86% 30.10 in 10.0 mi NNE 11.5 mph - N/A   Overcast
12:35 PM 52.5 °F - 49.3 °F 89% 30.10 in 10.0 mi North 8.1 mph - N/A   Overcast
12:55 PM 53.2 °F - 48.7 °F 85% 30.09 in 10.0 mi NNE 9.2 mph - N/A   Overcast
1:15 PM 54.1 °F - 46.8 °F 76% 30.08 in 10.0 mi NE 6.9 mph - N/A   Overcast
1:35 PM 55.0 °F - 46.0 °F 72% 30.07 in 10.0 mi North 6.9 mph - N/A   Mostly Cloudy
1:55 PM 54.7 °F - 46.4 °F 74% 30.07 in 10.0 mi North 9.2 mph - N/A   Overcast
2:15 PM 55.6 °F - 45.5 °F 69% 30.06 in 10.0 mi North 10.4 mph - N/A   Mostly Cloudy
2:55 PM 55.0 °F - 45.9 °F 71% 30.05 in 10.0 mi North 8.1 mph - N/A   Overcast
3:15 PM 55.8 °F - 45.5 °F 68% 30.05 in 10.0 mi NE 8.1 mph - N/A   Overcast
3:35 PM 55.6 °F - 45.1 °F 68% 30.05 in 10.0 mi NNE 12.7 mph 17.3 mph N/A   Overcast
3:55 PM 54.3 °F - 45.3 °F 72% 30.05 in 10.0 mi North 11.5 mph - N/A Rain Rain
4:15 PM 51.3 °F - 49.1 °F 92% 30.06 in 5.0 mi North 11.5 mph 17.3 mph 0.05 in Rain Heavy Rain
4:55 PM 52.0 °F - 51.6 °F 99% 30.05 in 10.0 mi North 8.1 mph - 0.05 in   Mostly Cloudy
5:15 PM 52.2 °F - 50.5 °F 94% 30.05 in 10.0 mi North 10.4 mph - N/A   Overcast
5:35 PM 51.4 °F - 50.2 °F 95% 30.05 in 10.0 mi NNE 8.1 mph - N/A   Overcast
5:55 PM 50.9 °F - 49.6 °F 95% 30.06 in 10.0 mi NNE 9.2 mph - N/A   Overcast
6:15 PM 50.5 °F - 49.5 °F 96% 30.06 in 10.0 mi North 6.9 mph - N/A   Overcast
6:35 PM 50.0 °F - 49.5 °F 98% 30.06 in 10.0 mi NNE 9.2 mph - N/A   Overcast
6:55 PM 49.3 °F - 49.1 °F 99% 30.06 in 10.0 mi North 5.8 mph - N/A   Overcast
7:15 PM 49.1 °F - 49.1 °F 100% 30.06 in 10.0 mi North 6.9 mph - N/A   Overcast
7:35 PM 49.1 °F - 49.1 °F 100% 30.06 in 10.0 mi North 6.9 mph - N/A   Overcast
7:55 PM 48.9 °F - 48.9 °F 100% 30.07 in 10.0 mi NNE 5.8 mph - N/A   Overcast
8:15 PM 48.7 °F - 48.6 °F 99% 30.07 in 10.0 mi North 5.8 mph - N/A   Overcast
8:35 PM 48.6 °F - 48.6 °F 100% 30.08 in 10.0 mi North 5.8 mph - N/A   Overcast
8:55 PM 48.4 °F - 48.4 °F 100% 30.08 in 10.0 mi North 5.8 mph - N/A   Overcast
9:15 PM 48.2 °F - 48.4 °F 100% 30.08 in 10.0 mi North 4.6 mph - N/A   Overcast
9:35 PM 48.2 °F - 48.2 °F 100% 30.08 in 10.0 mi North 6.9 mph - N/A   Overcast
10:15 PM 47.7 °F - 48.0 °F 100% 30.09 in 10.0 mi North 5.8 mph - N/A   Overcast
10:35 PM 47.3 °F - 47.5 °F 100% 30.08 in 10.0 mi North 6.9 mph - N/A   Overcast
11:15 PM - - - N/A% 30.08 in 10.0 mi North 8.1 mph - N/A   Overcast
11:35 PM - - - N/A% 30.07 in 10.0 mi NNE 5.8 mph - N/A   Overcast
11:55 PM 46.4 °F 43.5 °F 46.6 °F 100% 30.06 in 10.0 mi NNE 5.8 mph - N/A   Overcast